User: anonymous   Login
Location: Ciserano
(45.5833°N, 9.6000°E)
Time: 15:23:31
(UTC+00:00)
Language:

Milstar 3 Cent rocket - Orbit

View from above orbital plane
View from above orbital plane
View from above satellite
View from above satellite

Ground track
Ground track

The orbit data is extracted from the following two-line orbital elements,

1 25725U 99023B   21058.81488038 -.00000082  00000-0 -22027-3 0  9998
2 25725  28.3112 169.8744 2386619  62.6470 319.6526  9.67256316 69551
Epoch (UTC): 27 February 2021 19:33:25
Eccentricity: 0.2386619
inclination: 28.3112°
perigee height: 706 km
apogee height: 5147 km
right ascension of ascending node: 169.8744°
argument of perigee: 62.6470°
revolutions per day: 9.67256316
mean anomaly at epoch: 319.6526°
orbit number at epoch: 6955

The dashed part of the orbit path shows where the satellite is in the earth's shadow,  

DLR